Location: Mountain Grove
(34.0887°N, 86.6172°W)
Time: 22:06:14
(UTC+00:00)

Cosmos 1980 Rocket - Pass Details

Date: 14 July 2020
Orbit: 828 x 851 km, 71.0° (Epoch: 08 August)

Event Time Altitude Azimuth Distance (km) Brightness Sun altitude
Rises 08:31:09 0° 342° (NNW) 3,421 5.8 -22.7°
Reaches altitude 10° 08:33:38 10° 345° (NNW) 2,480 5.1 -22.4°
Maximum altitude 08:39:18 66° 67° (ENE) 925 2.5 -21.6°
Drops below altitude 10° 08:44:54 10° 150° (SSE) 2,455 4.4 -20.9°
Sets 08:47:21 0° 153° (SSE) 3,383 5.1 -20.5°
